N8HKU-5 Weather Reports


time (UTC)temp
C
wind
direction
speed
KPH
gust
KPH
rain 1hr
cm
rain 24hr
cm
rain mn
cm
humidity
%
barometer
mb
20260506222235 12 289 0.0 4.8 0.00 0.00 0.00 44 1010.1
20260506221234 12 11 0.0 4.8 0.00 0.00 0.00 46 1010.1
20260506220234 12 265 0.0 6.4 0.00 0.00 0.00 44 1010.1
20260506215234 12 0 0.0 0.0 0.00 0.00 0.00 44 1010.1
20260506214234 12 272 0.0 4.8 0.00 0.00 0.00 43 1010.0
20260506213234 12 253 0.0 9.7 0.00 0.00 0.00 43 1009.9
20260506212234 13 276 1.6 11.3 0.00 0.00 0.00 41 1009.9
20260506211235 12 0 0.0 0.0 0.00 0.00 0.00 44 1009.9
20260506210234 12 268 3.2 12.9 0.00 0.00 0.00 42 1010.0
20260506205234 13 272 1.6 14.5 0.00 0.00 0.00 40 1009.9
20260506204236 12 270 1.6 9.7 0.00 0.00 0.00 46 1009.8
20260506202234 12 283 1.6 9.7 0.00 0.00 0.00 43 1010.0
20260506201236 12 278 1.6 12.9 0.00 0.00 0.00 45 1010.1
20260506200234 12 277 1.6 11.3 0.00 0.00 0.00 45 1010.2
20260506195235 12 256 1.6 17.7 0.00 0.00 0.00 46 1010.1
20260506194236 12 256 0.0 3.2 0.00 0.00 0.00 48 1010.1
20260506193234 12 0 0.0 0.0 0.00 0.00 0.00 48 1010.2
20260506192234 12 0 0.0 0.0 0.00 0.00 0.00 46 1010.6
20260506191234 11 204 0.0 3.2 0.00 0.00 0.00 49 1010.5
20260506190234 12 264 4.8 12.9 0.00 0.00 0.00 45 1010.4
20260506185234 12 292 0.0 8.0 0.00 0.00 0.00 45 1010.3
20260506184234 12 302 0.0 1.6 0.00 0.00 0.00 48 1010.3
20260506183234 11 0 0.0 0.0 0.00 0.00 0.00 48 1010.2
20260506182234 11 58 0.0 1.6 0.00 0.00 0.00 50 1010.1
20260506181234 11 286 0.0 9.7 0.00 0.00 0.00 51 1010.3
20260506180234 11 266 0.0 11.3 0.00 0.00 0.00 48 1010.3
20260506175234 11 280 1.6 12.9 0.00 0.00 0.00 47 1010.4
20260506174234 11 271 1.6 12.9 0.00 0.00 0.00 49 1010.5
20260506173235 10 268 1.6 11.3 0.00 0.00 0.00 49 1010.8
20260506172234 10 275 1.6 14.5 0.00 0.00 0.00 48 1010.8
20260506171234 10 275 1.6 14.5 0.00 0.00 0.00 45 1010.7
20260506170234 10 267 1.6 17.7 0.00 0.00 0.00 47 1010.6
20260506165234 10 285 1.6 19.3 0.00 0.03 0.00 50 1010.5
20260506164234 10 286 1.6 9.7 0.00 0.05 0.00 50 1010.5
20260506163234 10 259 1.6 19.3 0.00 0.05 0.00 49 1010.5
20260506162234 11 268 1.6 6.4 0.00 0.05 0.00 48 1010.3
20260506161234 11 274 3.2 16.1 0.00 0.05 0.00 47 1010.4
20260506160234 11 0 0.0 0.0 0.00 0.05 0.00 48 1010.1
20260506155233 11 276 1.6 16.1 0.00 0.05 0.00 47 1010.1
20260506154234 11 277 1.6 12.9 0.00 0.05 0.00 46 1010.0
20260506153234 11 323 0.0 8.0 0.00 0.05 0.00 46 1010.0
20260506152234 11 269 1.6 11.3 0.00 0.05 0.00 48 1010.1
20260506151233 11 274 1.6 12.9 0.00 0.05 0.00 47 1009.8
20260506150234 11 282 1.6 17.7 0.00 0.05 0.00 45 1009.6
20260506145234 11 299 1.6 14.5 0.00 0.05 0.00 47 1009.6
20260506144233 11 263 0.0 6.4 0.00 0.05 0.00 48 1009.4
20260506143234 11 294 0.0 11.3 0.00 0.05 0.00 47 1009.4
20260506142234 11 257 0.0 8.0 0.00 0.05 0.00 48 1009.4
20260506141235 10 0 0.0 0.0 0.00 0.05 0.00 48 1009.5
20260506140234 10 272 0.0 6.4 0.00 0.05 0.00 50 1009.4
20260506135234 10 263 0.0 1.6 0.00 0.05 0.00 53 1009.1
20260506134234 10 281 0.0 1.6 0.00 0.05 0.00 52 1009.2
20260506133234 10 0 0.0 1.6 0.00 0.05 0.00 57 1009.2
20260506132234 9 0 0.0 0.0 0.00 0.05 0.00 58 1009.0
20260506131234 8 0 0.0 0.0 0.00 0.05 0.00 61 1008.9
20260506130235 8 0 0.0 0.0 0.00 0.05 0.00 63 1008.8
20260506125234 8 0 0.0 1.6 0.00 0.05 0.00 61 1008.7
20260506124234 8 0 0.0 0.0 0.00 0.05 0.00 64 1008.7
20260506123234 8 0 0.0 0.0 0.00 0.05 0.00 64 1008.5
20260506122234 7 0 0.0 0.0 0.00 0.05 0.00 66 1008.3
20260506121234 7 0 0.0 0.0 0.00 0.05 0.00 68 1008.1
20260506120234 7 0 0.0 0.0 0.00 0.05 0.00 66 1008.1
20260506115234 7 0 0.0 0.0 0.00 0.05 0.00 66 1008.1
20260506114233 7 0 0.0 0.0 0.00 0.05 0.00 66 1007.9
20260506113233 6 0 0.0 0.0 0.00 0.05 0.00 66 1007.9
20260506112233 6 0 0.0 0.0 0.00 0.05 0.00 66 1007.8
20260506111233 6 0 0.0 0.0 0.00 0.05 0.00 66 1007.7
20260506110233 6 0 0.0 0.0 0.00 0.05 0.00 65 1007.4
20260506105234 7 0 0.0 0.0 0.00 0.05 0.00 65 1007.2
20260506104235 7 0 0.0 0.0 0.00 0.05 0.00 64 1007.2
20260506103237 7 0 0.0 0.0 0.00 0.05 0.00 64 1007.0
20260506102233 7 0 0.0 0.0 0.00 0.05 0.00 65 1006.9
20260506101234 7 0 0.0 0.0 0.00 0.05 0.00 64 1006.9
20260506100234 7 0 0.0 1.6 0.00 0.05 0.00 65 1006.7
20260506095234 7 0 0.0 0.0 0.00 0.05 0.00 65 1006.7
20260506094234 7 0 0.0 0.0 0.00 0.05 0.00 64 1006.8
20260506093234 7 0 0.0 0.0 0.00 0.05 0.00 64 1006.7
20260506092233 7 0 0.0 0.0 0.00 0.05 0.00 65 1006.3
20260506091233 7 0 0.0 0.0 0.00 0.05 0.00 64 1006.6
20260506090234 7 0 0.0 0.0 0.00 0.05 0.00 64 1006.5
20260506085235 7 0 0.0 0.0 0.00 0.05 0.00 64 1006.2
20260506084236 7 0 0.0 0.0 0.00 0.05 0.00 63 1006.3
20260506083235 7 260 0.0 1.6 0.00 0.05 0.00 64 1006.4
20260506082233 8 0 0.0 0.0 0.00 0.05 0.00 64 1006.3
20260506081234 8 0 0.0 0.0 0.00 0.05 0.00 64 1006.2
20260506080233 8 0 0.0 0.0 0.00 0.05 0.00 64 1006.1
20260506073234 7 0 0.0 0.0 0.00 0.05 0.00 68 1006.4
20260506072234 7 0 0.0 0.0 0.00 0.05 0.00 69 1006.3
20260506071234 7 0 0.0 0.0 0.00 0.05 0.00 69 1006.3
20260506070235 7 0 0.0 0.0 0.00 0.05 0.00 71 1006.1
20260506062233 7 0 0.0 0.0 0.00 0.05 0.00 75 1006.7
20260506061234 7 0 0.0 0.0 0.00 0.05 0.00 77 1006.7
20260506060234 7 0 0.0 0.0 0.00 0.05 0.00 81 1006.7
20260506051233 8 0 0.0 0.0 0.00 0.08 0.00 74 1006.6
20260506050234 8 0 0.0 0.0 0.00 0.13 0.00 71 1006.7
20260506044234 8 0 0.0 0.0 0.00 0.28 0.00 67 1006.7
20260506043234 8 0 0.0 0.0 0.00 0.30 0.00 66 1006.7
20260506042234 8 0 0.0 0.0 0.00 0.36 0.00 68 1006.7
20260506041234 8 0 0.0 0.0 0.00 0.43 0.00 70 1006.7
20260506040233 8 0 0.0 0.0 0.00 0.51 0.00 69 1006.6
20260506035233 7 0 0.0 0.0 0.00 0.66 0.53 76 1006.4
20260506034233 7 0 0.0 0.0 0.00 0.66 0.53 80 1006.2
20260506033234 7 0 0.0 0.0 0.00 0.66 0.53 77 1006.1
20260506032234 7 0 0.0 0.0 0.00 0.66 0.53 79 1006.2
20260506031234 7 0 0.0 0.0 0.00 0.66 0.53 79 1006.5
20260506030233 7 0 0.0 0.0 0.00 0.66 0.53 76 1006.5
20260506025233 7 0 0.0 0.0 0.00 0.66 0.53 77 1006.6
20260506024234 8 0 0.0 0.0 0.00 0.66 0.53 78 1006.6
20260506023233 8 0 0.0 0.0 0.00 0.66 0.53 77 1006.7
20260506022233 8 0 0.0 0.0 0.00 0.66 0.53 75 1006.4
20260506021233 8 0 0.0 0.0 0.00 0.66 0.53 74 1006.4
20260506020234 8 0 0.0 0.0 0.00 0.66 0.53 71 1006.4
20260506015234 8 0 0.0 0.0 0.00 0.66 0.53 68 1006.3
20260506014233 9 0 0.0 0.0 0.00 0.66 0.53 72 1006.1
20260506013234 9 0 0.0 0.0 0.00 0.66 0.53 66 1006.0
20260506012233 10 256 0.0 4.8 0.00 0.66 0.53 60 1005.9
20260506011234 10 0 0.0 0.0 0.00 0.66 0.53 63 1005.8
20260506010234 10 0 0.0 0.0 0.00 0.66 0.53 60 1005.9
20260506005234 10 0 0.0 0.0 0.00 0.66 0.53 59 1005.9
20260506004237 10 0 0.0 0.0 0.00 0.66 0.53 60 1005.9
20260506003233 11 0 0.0 0.0 0.00 0.66 0.53 60 1006.0
20260506002234 11 0 0.0 0.0 0.00 0.66 0.53 57 1005.9
20260506001235 11 0 0.0 0.0 0.00 0.66 0.53 54 1005.9
20260506000233 11 0 0.0 0.0 0.00 0.66 0.53 54 1005.8
20260505235234 11 254 0.0 9.7 0.00 0.69 0.53 52 1005.8
20260505234233 11 0 0.0 0.0 0.00 0.71 0.53 56 1005.4
20260505233234 11 0 0.0 0.0 0.00 0.71 0.53 54 1005.2
20260505232235 11 0 0.0 0.0 0.00 0.71 0.53 55 1005.1
20260505231233 11 0 0.0 0.0 0.00 0.74 0.53 58 1005.2
20260505230233 12 0 0.0 0.0 0.00 0.81 0.53 58 1005.2
20260505225234 12 0 0.0 0.0 0.00 0.86 0.53 60 1005.2
20260505224233 12 0 0.0 0.0 0.00 0.86 0.53 63 1005.2
20260505223233 12 0 0.0 0.0 0.00 0.86 0.53 63 1005.3